Location: Unspecified
(51.5147°N, 7.4673°E)
Time: 13:13:27
(UTC+01:00)

A-11 Canister half - Pass Details

Date: 25 February 2026
Orbit: 1513 x 1686 km, 47.2° (Epoch: 17 March)

Event Time Altitude Azimuth Distance (km) Brightness Sun altitude
Rises 20:48:57 0° 245° (WSW) 4,935 12.3 -26.2°
Reaches altitude 10° 20:52:09 10° 242° (WSW) 3,949 11.6 -26.7°
Maximum altitude 21:02:08 64° 164° (SSE) 1,827 9.1 -28.1°
Enters shadow 21:04:33 51° 115° (ESE) 2,013 9.1 -28.4°
Drops below altitude 10° 21:11:56 10° 87° (E) 3,883 - -29.5°
Sets 21:15:03 0° 85° (E) 4,850 - -29.9°
